Location: Claremont
(33.9858°S, 18.4575°E)
Time: 04:01:37
(UTC+00:00)

Cosmos 1869 Rocket - Pass Details

Date: 03 March 2021
Orbit: 605 x 633 km, 82.5° (Epoch: 10 April)

Event Time Altitude Azimuth Distance (km) Brightness Sun altitude
Rises 17:51:11 0° 189° (S) 2,901 7.3 -7.2°
Reaches altitude 10° 17:53:26 10° 190° (S) 1,986 6.5 -7.7°
Maximum altitude 17:57:49 75° 275° (W) 639 3.8 -8.6°
Drops below altitude 10° 18:02:07 10° 359° (N) 1,955 6.0 -9.4°
Sets 18:04:19 0° 1° (N) 2,851 6.8 -9.9°
